• Em Portugal
  • Lista de países
  • Para 7 dias
  • Temperatura da água
  • Mapas de satélite
  • Mapa do tempo
  • Widgets de tempo
  • user-avatar
    Iniciar Sessão

    Previsão horária em Karbala

    Hoje, 23 Novembro, Quinta-feira

    Tempo Temperatura Precipitação Vento Pressão Humidade
    00:00 +20°C° 0 mm 1 m/s 757 mmHg 44%
    01:00 +18°C° 0 mm 2 m/s 757 mmHg 45%
    02:00 +18°C° 0 mm 2 m/s 757 mmHg 47%
    03:00 +18°C° 0 mm 2 m/s 757 mmHg 49%
    04:00 +17°C° 0 mm 2 m/s 757 mmHg 50%
    05:00 +17°C° 0 mm 2 m/s 757 mmHg 52%
    06:00 +17°C° 0 mm 2 m/s 758 mmHg 54%
    07:00 +17°C° 0 mm 2 m/s 758 mmHg 49%
    08:00 +18°C° 0 mm 3 m/s 759 mmHg 45%
    09:00 +19°C° 0 mm 3 m/s 759 mmHg 41%
    10:00 +19°C° 0 mm 3 m/s 759 mmHg 37%
    11:00 +20°C° 0 mm 3 m/s 759 mmHg 33%
    12:00 +21°C° 0 mm 3 m/s 759 mmHg 28%
    13:00 +21°C° 0 mm 3 m/s 759 mmHg 28%
    14:00 +21°C° 0 mm 3 m/s 759 mmHg 27%
    15:00 +21°C° 0 mm 3 m/s 759 mmHg 26%
    16:00 +20°C° 0 mm 3 m/s 759 mmHg 27%
    17:00 +20°C° 0 mm 3 m/s 759 mmHg 27%
    18:00 +19°C° 0 mm 3 m/s 759 mmHg 28%
    19:00 +19°C° 0 mm 3 m/s 759 mmHg 28%
    20:00 +19°C° 0 mm 2 m/s 759 mmHg 29%
    21:00 +18°C° 0 mm 2 m/s 760 mmHg 29%
    22:00 +18°C° 0 mm 2 m/s 760 mmHg 29%
    23:00 +18°C° 0 mm 3 m/s 760 mmHg 30%

    Amanhã, 24 Novembro, Sexta-feira

    Tempo Temperatura Precipitação Vento Pressão Humidade
    00:00 +17°C° 0 mm 3 m/s 760 mmHg 30%
    01:00 +17°C° 0 mm 3 m/s 760 mmHg 30%
    02:00 +16°C° 0 mm 3 m/s 760 mmHg 30%
    03:00 +16°C° 0 mm 3 m/s 760 mmHg 30%
    04:00 +16°C° 0 mm 2 m/s 761 mmHg 31%
    05:00 +15°C° 0 mm 2 m/s 761 mmHg 31%
    06:00 +15°C° 0 mm 1 m/s 761 mmHg 31%
    07:00 +15°C° 0 mm 1 m/s 761 mmHg 29%
    08:00 +16°C° 0 mm 1 m/s 762 mmHg 27%
    09:00 +18°C° 0 mm 1 m/s 762 mmHg 25%
    10:00 +18°C° 0 mm 2 m/s 762 mmHg 24%
    11:00 +19°C° 0 mm 2 m/s 762 mmHg 23%
    12:00 +19°C° 0 mm 3 m/s 762 mmHg 22%
    13:00 +20°C° 0 mm 3 m/s 762 mmHg 22%
    14:00 +20°C° 0 mm 3 m/s 762 mmHg 23%
    15:00 +20°C° 0 mm 2 m/s 761 mmHg 23%
    16:00 +20°C° 0 mm 2 m/s 762 mmHg 25%
    17:00 +19°C° 0 mm 2 m/s 762 mmHg 26%
    18:00 +19°C° 0 mm 1 m/s 762 mmHg 27%
    19:00 +19°C° 0 mm 1 m/s 762 mmHg 28%
    20:00 +19°C° 0 mm 1 m/s 763 mmHg 29%
    21:00 +18°C° 0 mm 2 m/s 763 mmHg 29%
    22:00 +17°C° 0 mm 2 m/s 763 mmHg 30%
    23:00 +17°C° 0 mm 2 m/s 764 mmHg 31%

    Depois de amanhã, 25 Novembro, Sábado

    Tempo Temperatura Precipitação Vento Pressão Humidade
    00:00 +17°C° 0 mm 2 m/s 764 mmHg 32%
    01:00 +16°C° 0 mm 2 m/s 764 mmHg 33%
    02:00 +16°C° 0 mm 2 m/s 764 mmHg 34%
    03:00 +15°C° 0 mm 2 m/s 764 mmHg 35%
    04:00 +15°C° 0 mm 1 m/s 764 mmHg 36%
    05:00 +15°C° 0 mm 1 m/s 764 mmHg 37%
    06:00 +14°C° 0 mm 1 m/s 764 mmHg 39%
    07:00 +15°C° 0 mm 1 m/s 765 mmHg 36%
    08:00 +18°C° 0 mm 1 m/s 765 mmHg 34%
    09:00 +19°C° 0 mm 1 m/s 765 mmHg 31%
    10:00 +19°C° 0 mm 1 m/s 765 mmHg 30%
    11:00 +20°C° 0 mm 1 m/s 765 mmHg 28%
    12:00 +21°C° 0 mm 1 m/s 765 mmHg 26%
    13:00 +21°C° 0 mm 1 m/s 764 mmHg 26%
    14:00 +22°C° 0 mm 1 m/s 764 mmHg 26%
    15:00 +22°C° 0 mm 1 m/s 764 mmHg 26%
    16:00 +21°C° 0 mm 1 m/s 764 mmHg 27%
    17:00 +21°C° 0 mm 1 m/s 764 mmHg 28%
    18:00 +19°C° 0 mm 2 m/s 764 mmHg 30%
    19:00 +19°C° 0 mm 2 m/s 764 mmHg 31%
    20:00 +19°C° 0 mm 2 m/s 764 mmHg 31%
    21:00 +18°C° 0 mm 2 m/s 764 mmHg 32%
    22:00 +18°C° 0 mm 3 m/s 764 mmHg 32%
    23:00 +18°C° 0 mm 3 m/s 764 mmHg 32%

    26 Novembro, Domingo

    Tempo Temperatura Precipitação Vento Pressão Humidade
    00:00 +18°C° 0 mm 3 m/s 764 mmHg 32%
    01:00 +17°C° 0 mm 3 m/s 764 mmHg 32%
    02:00 +17°C° 0 mm 3 m/s 764 mmHg 32%
    03:00 +17°C° 0 mm 3 m/s 763 mmHg 32%
    04:00 +17°C° 0 mm 3 m/s 763 mmHg 33%
    05:00 +16°C° 0 mm 3 m/s 763 mmHg 33%
    06:00 +16°C° 0 mm 3 m/s 763 mmHg 33%
    07:00 +16°C° 0,1 mm 2 m/s 764 mmHg 35%
    08:00 +16°C° 0,1 mm 2 m/s 764 mmHg 36%
    09:00 +16°C° 0,1 mm 1 m/s 765 mmHg 37%
    10:00 +16°C° 0,5 mm 2 m/s 764 mmHg 43%
    11:00 +15°C° 0,5 mm 2 m/s 764 mmHg 48%
    12:00 +14°C° 0,5 mm 2 m/s 764 mmHg 54%
    13:00 +13°C° 0,2 mm 3 m/s 763 mmHg 57%
    14:00 +13°C° 0,2 mm 3 m/s 763 mmHg 59%
    15:00 +13°C° 0,2 mm 4 m/s 763 mmHg 62%
    16:00 +13°C° 0 mm 4 m/s 763 mmHg 62%
    17:00 +13°C° 0 mm 4 m/s 763 mmHg 62%
    18:00 +13°C° 0 mm 4 m/s 763 mmHg 62%
    19:00 +13°C° 0 mm 4 m/s 763 mmHg 61%
    20:00 +13°C° 0 mm 3 m/s 763 mmHg 60%
    21:00 +13°C° 0 mm 3 m/s 763 mmHg 58%
    22:00 +13°C° 0 mm 3 m/s 763 mmHg 57%
    23:00 +14°C° 0 mm 2 m/s 763 mmHg 56%

    27 Novembro, Segunda-feira

    Tempo Temperatura Precipitação Vento Pressão Humidade
    00:00 +14°C° 0 mm 2 m/s 763 mmHg 55%
    01:00 +15°C° 0 mm 2 m/s 762 mmHg 54%
    02:00 +15°C° 0 mm 2 m/s 762 mmHg 53%
    03:00 +14°C° 0 mm 3 m/s 762 mmHg 52%
    04:00 +14°C° 0 mm 3 m/s 762 mmHg 51%
    05:00 +14°C° 0 mm 3 m/s 762 mmHg 50%
    06:00 +14°C° 0 mm 3 m/s 762 mmHg 49%
    07:00 +14°C° 0 mm 3 m/s 762 mmHg 48%
    08:00 +16°C° 0 mm 3 m/s 762 mmHg 46%
    09:00 +16°C° 0 mm 2 m/s 763 mmHg 45%
    10:00 +16°C° 0 mm 2 m/s 762 mmHg 43%
    11:00 +17°C° 0 mm 2 m/s 762 mmHg 42%
    12:00 +17°C° 0 mm 2 m/s 762 mmHg 40%
    13:00 +18°C° 0 mm 2 m/s 761 mmHg 39%
    14:00 +18°C° 0 mm 3 m/s 761 mmHg 38%
    15:00 +19°C° 0 mm 3 m/s 761 mmHg 37%
    16:00 +18°C° 0 mm 3 m/s 761 mmHg 38%
    17:00 +18°C° 0 mm 3 m/s 761 mmHg 38%
    18:00 +17°C° 0 mm 2 m/s 761 mmHg 39%
    19:00 +17°C° 0 mm 2 m/s 761 mmHg 39%
    20:00 +17°C° 0 mm 2 m/s 761 mmHg 39%
    21:00 +16°C° 0 mm 2 m/s 761 mmHg 39%
    22:00 +16°C° 0 mm 2 m/s 761 mmHg 39%
    23:00 +16°C° 0 mm 2 m/s 761 mmHg 38%

    28 Novembro, Terça-feira

    Tempo Temperatura Precipitação Vento Pressão Humidade
    00:00 +16°C° 0 mm 2 m/s 761 mmHg 38%
    01:00 +15°C° 0 mm 2 m/s 761 mmHg 39%
    02:00 +14°C° 0 mm 3 m/s 761 mmHg 39%
    03:00 +14°C° 0 mm 3 m/s 761 mmHg 39%
    04:00 +14°C° 0 mm 3 m/s 761 mmHg 40%
    05:00 +14°C° 0 mm 3 m/s 762 mmHg 40%
    06:00 +13°C° 0 mm 3 m/s 762 mmHg 40%
    07:00 +14°C° 0 mm 3 m/s 762 mmHg 38%
    08:00 +16°C° 0 mm 3 m/s 762 mmHg 36%
    09:00 +17°C° 0 mm 3 m/s 763 mmHg 35%
    10:00 +18°C° 0 mm 3 m/s 763 mmHg 33%
    11:00 +19°C° 0 mm 3 m/s 762 mmHg 32%
    12:00 +20°C° 0 mm 3 m/s 762 mmHg 30%
    13:00 +20°C° 0 mm 3 m/s 762 mmHg 31%
    14:00 +20°C° 0 mm 3 m/s 761 mmHg 31%
    15:00 +21°C° 0 mm 3 m/s 761 mmHg 32%
    16:00 +20°C° 0 mm 3 m/s 761 mmHg 34%
    17:00 +19°C° 0 mm 2 m/s 761 mmHg 36%
    18:00 +19°C° 0 mm 2 m/s 761 mmHg 38%
    19:00 +18°C° 0 mm 2 m/s 761 mmHg 39%
    20:00 +18°C° 0 mm 2 m/s 762 mmHg 40%
    21:00 +17°C° 0 mm 2 m/s 762 mmHg 41%
    22:00 +17°C° 0 mm 2 m/s 762 mmHg 41%
    23:00 +18°C° 0 mm 1 m/s 762 mmHg 42%
    Mostrar mais